[[{"header":{"parameterUnit":"m.s-1","parameterCategory":1,"la1":30.2991,"la2":30.254,"lo1":-89.0895,"lo2":-89.0444,"dy":0.0017,"dx":0.0017,"nx":28,"ny":28,"refTime":"2025-07-29T21:00:00:Z","depth":0,"parameterNumber":2,"parameterNumberName":"U-component_of_WINDS"},"data":[0,0,0,0,0,0,0,0,0,0,0,0,0,0,0,0,0,0,0,0,0,0,0,0,0,0,0,0,0,0,0,0,0,0,0,0,0,0,0,0,0,0,0,0,0,0,0,0,0,0,0,0,0,0,0,0,0,0,3.7798,3.7799,0,3.7932,3.7934,3.7935,3.7897,3.7894,3.7891,3.7889,3.8028,3.8034,3.804,0,0,0,0,0,0,0,0,0,0,0,0,0,3.7507,3.7513,3.7798,3.7799,3.7801,3.7932,3.7934,3.7936,3.7897,3.7894,3.7891,3.7888,3.8026,3.8033,3.8041,0,0,0,0,0,0,0,0,0,0,0,0,0,3.7637,3.7515,3.7797,3.7798,3.7799,3.7932,3.7934,3.7936,3.7898,3.7894,3.789,3.7886,3.8023,3.8032,3.8042,3.8182,0,0,3.807,3.8074,0,0,0,0,0,0,0,0,3.763,3.7648,3.7796,3.7798,3.78,3.7894,3.7882,3.8019,3.7899,3.7861,3.7889,3.7884,3.7987,3.7999,3.8033,3.8189,3.8195,3.8071,3.8077,3.8081,3.8084,0,0,0,0,0,0,0,3.7621,3.7642,3.7851,3.7798,3.78,3.7791,3.7805,3.7908,3.7945,3.7864,3.7861,3.7878,3.7987,3.8024,3.8036,3.8197,3.8071,3.8079,3.8085,3.8089,3.8474,3.8479,0,0,0,0,0,0,3.761,3.7634,3.7847,3.7855,3.7703,3.78,3.7815,3.7868,3.7944,3.7952,3.7881,3.7875,3.801,3.8025,3.8041,3.821,3.8081,3.809,3.8095,3.847,3.8475,3.848,0,0,0,0,0,0,3.7604,3.763,3.7841,3.7744,3.777,3.7809,3.7868,3.7872,3.791,3.7957,3.7963,3.7912,3.8007,3.8028,3.8147,3.8214,3.8094,3.8102,3.8464,3.8472,3.8478,3.855,0,0,0,0,0,0,3.7596,3.7628,3.7682,3.7746,3.7776,3.7946,3.7873,3.7878,3.7926,3.792,3.7988,3.7995,3.8006,3.8133,3.8157,3.8225,3.811,3.8459,3.8468,3.8476,3.8542,3.8559,3.8573,0,0,0,0,0,3.7586,3.7697,3.7685,3.771,3.7844,3.795,3.7967,3.7976,3.7932,3.7986,3.8016,3.7993,3.8203,3.8146,3.8172,3.8244,3.8454,3.8465,3.8475,3.8535,3.8555,3.8573,0,0,0,0,0,0,3.7641,3.7706,3.7692,3.7828,3.7883,3.7943,3.8012,3.7997,3.8067,3.8059,3.8067,3.8083,3.8205,3.8237,3.8172,3.8384,3.8322,3.8338,3.8359,3.8379,3.8394,3.8384,3.8118,0,0,0,0,0,3.7668,3.7749,3.7801,3.7915,3.7944,3.7973,3.802,3.8022,3.808,3.8103,3.8142,3.82,3.8279,3.8331,3.8406,3.8546,3.856,3.8609,3.8624,3.8637,3.865,3.8726,3.8748,3.8514,3.8514,3.8514,0,0,3.7727,3.7772,3.7822,3.7927,3.7971,3.8053,3.7993,3.8084,3.8145,3.8117,3.8232,3.8263,3.8328,3.8458,3.8518,3.8488,3.8718,3.865,3.866,3.8667,3.8739,3.8761,3.8781,3.8521,3.852,3.8519,0,0,3.7875,3.7917,3.8017,3.8061,3.8128,3.8146,3.817,3.8232,3.8251,3.8367,3.8347,3.8421,3.8556,3.8603,3.8645,3.881,3.8791,3.8834,3.8915,3.8989,3.9008,3.9024,3.9082,3.9103,3.8848,3.8848,3.8848,0,3.7939,3.8063,3.807,3.8162,3.8208,3.8186,3.8287,3.833,3.8418,3.845,3.8416,3.8585,3.8627,3.8768,3.8808,3.8843,3.887,3.8826,3.9004,3.9021,3.9036,3.9092,3.9114,3.8853,3.8852,3.8852,3.8851,0,3.8138,3.8224,3.8296,3.8381,3.8436,3.8532,3.8553,3.8608,3.8605,3.8627,3.8745,3.8795,3.8879,3.8913,3.8911,3.9054,3.9033,3.9002,3.894,3.9063,3.9116,3.9137,3.8859,3.8858,3.8856,3.8855,0,0,3.8325,3.8411,3.8438,3.8475,3.8547,3.8613,3.8708,3.879,3.8837,3.8898,3.8977,3.9092,3.9063,3.911,3.9114,3.9179,3.9306,3.9139,3.9141,3.9168,3.9465,3.9488,3.9512,3.9294,3.9298,3.9301,3.9459,0,3.8479,3.8645,3.8653,3.8804,3.8884,3.8864,3.8946,3.8999,3.9022,3.9093,3.9118,3.92,3.9155,3.9184,3.9247,3.9277,3.9366,3.9266,3.9368,3.9371,3.9352,3.954,3.9565,3.9711,3.948,3.9483,3.9486,0,3.868,3.8747,3.8906,3.8965,3.8998,3.9072,3.9148,3.9216,3.9275,3.9287,3.934,3.9334,3.943,3.9365,3.9499,3.9431,3.9473,3.9494,3.95,3.951,3.9436,3.9554,3.9758,3.978,3.9519,3.9516,3.9514,0,3.88,3.8929,3.9041,3.9074,3.9146,3.9198,3.923,3.9285,3.9334,3.94,3.9432,3.9508,3.9551,3.961,3.9625,3.9576,3.9758,3.9695,3.9771,3.9771,3.981,3.9808,4.0024,3.9838,3.9838,3.9838,3.9837,0,3.8971,3.9069,3.9095,3.9164,3.9273,3.9282,3.9389,3.9418,3.9467,3.9541,3.9528,3.9598,3.9614,3.9686,3.9699,3.9807,3.9826,3.9839,3.9841,3.984,3.9838,3.9867,3.9858,3.9844,3.9842,3.9841,3.984,0,3.9123,3.9145,3.9265,3.9323,3.9339,3.9417,3.9466,3.9532,3.9553,3.9647,3.9669,3.9703,3.9788,3.9809,3.991,3.9919,4.0047,4.0039,4.0027,4.0026,4.0101,4.0094,4.0343,4.0376,4.017,4.0172,4.0173,0,3.923,3.9305,3.937,3.9418,3.9453,3.9531,3.958,3.9592,3.9644,3.9716,3.9773,3.9856,3.9924,4.006,4.0094,4.0171,4.0165,4.0247,4.0177,4.0173,4.0166,4.0161,4.0168,4.0261,4.0263,4.0265,4.0266,0,3.9418,3.9425,3.9496,3.9572,3.963,3.969,3.9748,3.9788,3.9807,3.9866,3.9952,4.0004,4.0107,4.019,4.0268,4.0301,4.0288,4.0288,4.031,4.0309,4.0299,4.0305,4.0063,4.0282,4.0281,4.028,4.0279,4.0278,3.9551,3.9616,3.9672,3.9751,3.9795,3.9849,3.9913,3.9942,4.0014,4.0099,4.0101,4.0195,4.0252,4.0354,4.0392,4.0466,4.0441,4.0473,4.0481,4.0488,4.0494,4.0287,4.048,4.048,4.0479,4.0479,4.0479,0,3.9737,3.9772,3.9845,3.9925,3.9988,3.9969,4.0031,4.0085,4.0167,4.0221,4.0287,4.0386,4.0466,4.0505,4.0585,4.0636,4.0632,4.0656,4.0653,4.066,4.0513,4.0486,4.0659,4.0659,4.0658,4.0658,4.0658,4.0658,3.9842,3.9951,3.9964,4.0094,4.0129,4.022,4.0257,4.0306,4.0349,4.046,4.0526,4.0551,4.0599,4.0682,4.0754,4.0764,4.0793,4.0822,4.0828,4.0689,4.0671,4.0653,4.0628,4.0828,4.0828,4.097,4.0971,4.0972]},{"header":{"parameterUnit":"m.s-1","parameterCategory":1,"la1":30.2991,"la2":30.254,"lo1":-89.0895,"lo2":-89.0444,"dy":0.0017,"dx":0.0017,"nx":28,"ny":28,"refTime":"2025-07-29T21:00:00:Z","depth":0,"parameterNumber":3,"parameterNumberName":"V-component_of_WINDS"},"data":[0,0,0,0,0,0,0,0,0,0,0,0,0,0,0,0,0,0,0,0,0,0,0,0,0,0,0,0,0,0,0,0,0,0,0,0,0,0,0,0,0,0,0,0,0,0,0,0,0,0,0,0,0,0,0,0,0,0,2.5057,2.5058,0,2.5187,2.5189,2.519,2.5206,2.5205,2.5203,2.5202,2.5335,2.5339,2.5344,0,0,0,0,0,0,0,0,0,0,0,0,0,2.4819,2.4824,2.5057,2.5058,2.506,2.5187,2.5189,2.5191,2.5206,2.5205,2.5203,2.5202,2.5333,2.5339,2.5344,0,0,0,0,0,0,0,0,0,0,0,0,0,2.4933,2.4825,2.5056,2.5083,2.5087,2.5187,2.5189,2.5191,2.5207,2.5205,2.5203,2.5201,2.5331,2.5338,2.5345,2.5427,0,0,2.5367,2.537,0,0,0,0,0,0,0,0,2.4927,2.4942,2.5077,2.5081,2.5086,2.5178,2.5154,2.527,2.5207,2.5161,2.5202,2.52,2.5284,2.5295,2.5324,2.5434,2.5439,2.5368,2.5372,2.5375,2.5377,0,0,0,0,0,0,0,2.4919,2.4937,2.5108,2.5079,2.5084,2.5088,2.5102,2.5176,2.5232,2.5165,2.5166,2.5182,2.5286,2.5317,2.5327,2.5441,2.5367,2.5374,2.5378,2.5381,2.5626,2.5628,0,0,0,0,0,0,2.4906,2.493,2.5104,2.5112,2.5,2.5094,2.511,2.5151,2.5231,2.5241,2.5183,2.5182,2.5306,2.5319,2.5332,2.5434,2.5375,2.5381,2.5386,2.5624,2.5627,2.5629,0,0,0,0,0,0,2.4901,2.4922,2.5099,2.5022,2.5044,2.51,2.5146,2.5154,2.5185,2.5245,2.5255,2.5205,2.5305,2.5322,2.5404,2.5439,2.5385,2.5391,2.5621,2.5625,2.5628,2.5639,0,0,0,0,0,0,2.4894,2.492,2.4952,2.5022,2.5048,2.5169,2.5148,2.5158,2.5197,2.5197,2.5268,2.5277,2.5305,2.5393,2.5411,2.5448,2.5397,2.5618,2.5623,2.5627,2.5636,2.5642,2.5648,0,0,0,0,0,2.4886,2.4949,2.4953,2.4974,2.509,2.5171,2.5186,2.5217,2.52,2.5233,2.5271,2.5275,2.5432,2.5401,2.5422,2.5461,2.5616,2.5622,2.5627,2.5633,2.5641,2.5648,0,0,0,0,0,0,2.4881,2.4959,2.4964,2.5053,2.5105,2.5174,2.5216,2.5224,2.5282,2.5279,2.5314,2.533,2.5411,2.5444,2.5408,2.5545,2.5523,2.5532,2.5521,2.5529,2.5535,2.5525,2.5403,0,0,0,0,0,2.489,2.495,2.5015,2.5086,2.5113,2.516,2.5196,2.5215,2.5271,2.5293,2.5338,2.5391,2.5453,2.5492,2.5552,2.564,2.5656,2.5678,2.5684,2.5688,2.5696,2.5746,2.5757,2.5646,2.5646,2.5646,0,0,2.491,2.496,2.4995,2.5087,2.513,2.5191,2.5178,2.5243,2.5289,2.5303,2.5384,2.5418,2.548,2.5566,2.5606,2.5596,2.573,2.5695,2.5698,2.5704,2.5752,2.5763,2.5772,2.5649,2.5649,2.5648,0,0,2.4977,2.5021,2.5086,2.5129,2.5195,2.5226,2.5241,2.5309,2.5332,2.5414,2.5426,2.548,2.5585,2.563,2.5666,2.575,2.5756,2.5769,2.5801,2.5849,2.5858,2.5866,2.5897,2.5907,2.5776,2.5776,2.5776,0,2.4993,2.5086,2.5118,2.5183,2.5223,2.5239,2.5305,2.5345,2.5427,2.5454,2.5442,2.5575,2.5618,2.5714,2.5735,2.5763,2.5783,2.5761,2.5854,2.5862,2.587,2.59,2.5912,2.5777,2.5777,2.5777,2.5777,0,2.5103,2.5167,2.5212,2.5291,2.5336,2.5401,2.5442,2.5484,2.5499,2.5531,2.5614,2.5666,2.5737,2.5762,2.5777,2.5861,2.5853,2.5847,2.5825,2.5882,2.591,2.5922,2.5779,2.5779,2.5778,2.5778,0,0,2.5171,2.5267,2.5283,2.5319,2.5393,2.5444,2.5509,2.558,2.5615,2.5671,2.5727,2.5816,2.5811,2.5852,2.5872,2.5915,2.5979,2.5904,2.5906,2.5917,2.6076,2.6081,2.6094,2.5983,2.5986,2.5988,2.6071,0,2.5247,2.5366,2.5396,2.5497,2.5558,2.5574,2.5631,2.5682,2.5714,2.577,2.5805,2.5868,2.5856,2.5881,2.5924,2.5962,2.6012,2.5957,2.6037,2.6039,2.6021,2.6109,2.6113,2.619,2.6083,2.6085,2.6086,0,2.5352,2.5411,2.5518,2.5585,2.5611,2.5662,2.573,2.5782,2.5841,2.5861,2.5908,2.5924,2.5993,2.5967,2.6063,2.6025,2.606,2.6084,2.6087,2.6096,2.6066,2.6121,2.6215,2.6227,2.6104,2.6102,2.6101,0,2.5391,2.5497,2.5576,2.5606,2.5686,2.5722,2.5756,2.5813,2.5854,2.5912,2.5939,2.6004,2.604,2.6091,2.6124,2.6102,2.6218,2.6194,2.6237,2.6236,2.6261,2.6259,2.6363,2.6282,2.6282,2.6282,2.6281,0,2.5474,2.5539,2.5595,2.5643,2.5716,2.5751,2.5823,2.5858,2.5908,2.5963,2.5981,2.6032,2.6073,2.613,2.6156,2.6233,2.6248,2.6267,2.6273,2.6266,2.6264,2.6289,2.6285,2.6285,2.6284,2.6283,2.6283,0,2.5531,2.5571,2.5657,2.5726,2.5745,2.5796,2.5854,2.5902,2.5934,2.6004,2.6022,2.6073,2.6141,2.6179,2.6265,2.6282,2.6368,2.6371,2.6348,2.6351,2.6392,2.6388,2.6516,2.6536,2.6441,2.6442,2.6442,0,2.5581,2.5632,2.5706,2.5745,2.578,2.5842,2.5884,2.592,2.5962,2.6033,2.6072,2.6141,2.6199,2.6307,2.6351,2.6417,2.6422,2.6463,2.6432,2.6423,2.6424,2.6421,2.6426,2.6468,2.6469,2.647,2.647,0,2.5666,2.5684,2.5744,2.5811,2.586,2.5914,2.5968,2.5999,2.6043,2.609,2.6161,2.6205,2.6293,2.6361,2.6431,2.6466,2.6476,2.6479,2.6493,2.6486,2.6471,2.6481,2.6364,2.6476,2.6476,2.6475,2.6475,2.6475,2.5722,2.5768,2.5828,2.5895,2.5939,2.5989,2.6037,2.6076,2.6136,2.621,2.6228,2.6302,2.636,2.6454,2.6491,2.655,2.6542,2.6561,2.6566,2.6571,2.6573,2.6461,2.6562,2.6562,2.6562,2.6562,2.6562,0,2.5809,2.5849,2.5909,2.5985,2.6037,2.6042,2.6102,2.6145,2.621,2.6264,2.632,2.6401,2.6468,2.6518,2.6587,2.6624,2.663,2.6641,2.6639,2.6647,2.6575,2.6557,2.6634,2.6634,2.6634,2.6634,2.6634,2.6634,2.5861,2.5939,2.5964,2.6065,2.6104,2.6178,2.6212,2.6258,2.6301,2.6391,2.6447,2.6479,2.6532,2.6604,2.6666,2.6679,2.6704,2.6714,2.6727,2.6659,2.6652,2.6644,2.6628,2.6719,2.6719,2.6794,2.6795,2.6796]}]]